Location: Balls_Creek
(35.6670°N, 81.1170°W)
Time: 02:48:52
(UTC-04:00)

Daily predictions for brighter satellites

Satellite Brightness Start Highest point End
(mag) Time Altitude Azimuth Time Altitude Azimuth Time Altitude Azimuth
CZ-4C R/B 4.5 00:26:51 19° N 00:26:51 19° N 00:28:45 10° NNE
ATLAS 5 CENTAUR R/B 4.2 00:28:33 10° NNW 00:31:12 25° N 00:31:12 25° N
USA 215 4.3 03:21:42 10° ENE 03:26:55 33° ESE 03:26:55 33° ESE
Cosmos 1980 Rocket 4.1 03:23:45 10° N 03:28:27 27° ENE 03:33:08 10° ESE
CZ-2D R/B 3.2 03:26:35 10° NNE 03:30:01 41° NNE 03:30:01 41° NNE
Cosmos 1697 Rocket 3.6 03:26:32 10° N 03:31:12 46° NE 03:31:12 46° NE
SL-16 R/B 3.0 03:34:38 55° N 03:34:38 55° N 03:39:26 10° NNW
Cosmos 2082 Rocket 3.1 03:35:02 44° N 03:35:02 44° N 03:38:49 10° NNE
Cosmos 1092 Rocket 4.4 03:27:39 10° N 03:32:43 59° NNE 03:32:43 59° NNE
Lacrosse 4 Rocket 4.0 03:32:13 10° N 03:33:36 18° N 03:33:36 18° N
ARIANE 5 R/B 3.3 03:39:45 10° NNE 03:43:38 49° NE 03:43:38 49° NE
Cosmos 1627 Rocket 4.4 03:53:52 10° N 04:00:16 86° E 04:00:25 85° SE
ADEOS II 3.3 03:58:42 10° NNE 04:03:28 34° E 04:04:45 30° SE
H-II Stage 2 4.5 04:06:46 19° SE 04:06:46 19° SE 04:12:44 10° E
IRS-1D 4.4 04:02:12 10° N 04:05:48 40° NNW 04:05:48 40° NNW
ADEOS 3.7 04:04:47 10° NNE 04:09:55 70° E 04:09:55 70° E
Cosmos 1833 Rocket 3.8 04:14:17 30° NW 04:14:17 30° NW 04:18:24 10° N
Resurs 1-4 Rocket 3.3 04:09:47 10° N 04:13:07 30° NW 04:13:07 30° NW
Cosmos 1634 Rocket 4.3 04:18:31 48° WNW 04:18:31 48° WNW 04:24:00 10° N
Cosmos 2058 Rocket 4.3 04:15:36 10° N 04:19:45 39° E 04:21:28 27° SE
Helios 1A Rocket 4.2 04:16:20 10° N 04:18:54 36° N 04:18:54 36° N
Lacrosse 5 rocket 3.3 04:21:36 22° NNW 04:21:36 22° NNW 04:24:02 10° NNE
Cosmos 1766 4.2 04:20:51 10° N 04:24:03 46° NE 04:24:03 46° NE
Cosmos 841 Rocket 4.3 04:25:09 34° SE 04:26:42 44° ESE 04:31:36 10° NNE
Cosmos 1606 Rocket 4.1 04:26:56 10° N 04:30:10 49° NNW 04:30:10 49° NNW
SL-8 R/B 3.7 04:31:59 68° SE 04:31:59 68° SE 04:36:13 10° SE
Cosmos 2360 4.1 04:26:26 10° NNW 04:32:09 89° WSW 04:36:46 16° SSE
Cosmos 2279 Rocket 3.9 04:32:48 57° WSW 04:33:41 64° W 04:39:55 10° N
Cosmos 2228 3.2 04:32:31 10° N 04:36:47 67° E 04:37:29 56° SE
Cosmos 1892 Rocket 3.7 04:40:00 61° NW 04:40:00 61° NW 04:43:56 10° N
Cosmos 2026 Rocket 4.3 04:40:59 10° NNW 04:46:55 42° W 04:47:23 42° W
Meteor 1-21 4.1 04:47:14 39° SSW 04:49:27 85° W 04:55:06 10° N
ATLAS 3B R/B 2.8 04:47:02 32° SSW 04:50:38 77° ESE 04:57:39 10° NE
NOSS 3-2 (A) 4.0 04:50:07 24° S 04:53:23 51° ESE 04:59:25 10° NE
Cosmos 1763 Rocket 3.5 04:53:31 49° SW 04:54:46 66° WNW 05:00:03 10° NNE
Timation 2 Rocket 3.8 04:52:46 40° SSW 04:55:07 79° WNW 05:01:07 10° NNE
Cosmos 1898 Rocket 3.5 05:00:16 10° NNW 05:05:20 53° WSW 05:09:18 16° S
Cosmos 1733 4.3 05:02:12 10° N 05:05:55 44° E 05:09:37 10° SSE
USA 215 3.5 05:04:15 10° NE 05:10:39 59° NW 05:14:17 27° WSW
CZ-2D R/B 4.2 05:09:56 10° NW 05:11:14 11° WNW 05:11:21 11° WNW
Cosmos 1980 Rocket 2.6 05:07:21 10° NW 05:12:29 37° WSW 05:15:16 23° SSW
Cosmos 1655 Rocket 4.5 05:07:13 10° NNW 05:13:05 40° W 05:16:05 25° SW
SEDSat Delta rocket 4.1 05:10:37 30° WSW 05:13:53 61° S 05:20:35 10° E
Okean O Rocket 3.3 05:10:33 10° NE 05:14:26 31° E 05:18:18 10° SSE
Hubble Space Telescope 2.9 05:17:05 13° S 05:17:05 13° S 05:18:04 10° SSE
Cosmos 2082 Rocket 4.3 05:17:09 10° WNW 05:18:10 10° NW 05:19:12 10° NW
Cosmos 1937 Rocket 3.5 05:13:44 10° NNW 05:18:49 57° WSW 05:23:49 10° S
Cosmos 1470 3.6 05:16:48 10° N 05:20:42 52° E 05:24:33 10° SSE
Cosmos 2266 Rocket 3.9 05:15:47 10° NNW 05:21:49 69° W 05:27:55 10° S
SL-16 R/B 2.3 05:17:15 10° NNW 05:22:57 80° ENE 05:28:36 10° SSE
ARIANE 5 R/B 4.5 05:21:11 10° NW 05:23:26 13° WNW 05:23:59 13° WNW
DNEPR-1 R/B 3.4 05:29:30 24° SW 05:31:55 74° WNW 05:36:21 10° NNE
Centaur D-1AR AC-39 4.3 05:33:38 11° SSW 05:35:36 13° S 05:37:38 10° SSE
Cosmos 990 Rocket 4.4 05:32:31 10° NW 05:37:14 37° W 05:41:56 10° SSW
Cosmos 2150 Rocket 4.2 05:33:17 10° NNW 05:38:36 53° WSW 05:43:51 10° S
Cosmos 292 Rocket 4.2 05:36:09 20° SW 05:39:05 43° WNW 05:43:42 10° N
Cosmos 2322 Rocket 2.1 05:34:15 10° NNW 05:39:53 77° WSW 05:45:28 10° SSE
Cosmos 1707 2.6 05:36:18 10° S 05:40:09 85° W 05:44:03 10° N
Cosmos 836 Rocket 4.4 05:34:57 10° SSW 05:40:09 83° WNW 05:45:23 10° NNE
Cosmos 1833 4.3 05:34:27 10° SSW 05:40:16 83° ESE 05:46:05 10° NNE
Aureole 2 Rocket 4.5 05:37:01 10° N 05:40:31 34° ENE 05:43:47 10° SE
ADEOS II 3.2 05:38:44 10° NNW 05:42:58 25° WNW 05:45:42 17° WSW
OAO 3 Rocket 4.0 05:41:40 19° WSW 05:44:08 32° SSW 05:48:20 10° SE
Cosmos 1953 2.4 05:40:55 10° NNW 05:44:55 59° W 05:48:54 10° S
Cosmos 2298 Rocket 4.4 05:40:01 10° NNW 05:44:56 39° W 05:49:49 10° S
PAYLOAD B 4.4 05:39:40 10° NNE 05:45:18 77° ESE 05:50:53 10° S
USA 238 DEB 4.3 05:43:52 16° WSW 05:48:50 40° NW 05:55:19 10° NNE
USA 238 4.3 05:43:57 16° WSW 05:48:55 40° NW 05:55:26 10° NNE
ERBS 3.4 05:46:01 10° SSW 05:49:12 40° SE 05:52:25 10° NE
CZ-4B R/B 4.1 05:45:33 10° NNE 05:49:20 66° ESE 05:53:15 10° S
PSLV R/B 3.9 05:45:36 10° N 05:49:21 51° WNW 05:52:59 10° SSW
PSLV R/B 4.2 05:46:32 10° N 05:50:21 35° WNW 05:53:38 13° SW
Cosmos 372 Rocket 4.3 05:46:32 10° NNW 05:51:46 71° ENE 05:56:54 10° SSE
Meteor 1-31 Rocket 2.9 05:48:56 10° NNE 05:52:50 79° ESE 05:56:40 10° S
Cosmos 1378 3.8 05:53:06 12° SW 05:56:08 34° W 05:59:35 10° NNW
Cosmos 1812 Rocket 3.7 05:52:38 10° NNW 05:57:00 55° W 06:01:20 10° S
CZ-4B R/B 3.3 05:56:35 10° NNE 06:02:11 90° ESE 06:07:38 10° SSW
CRYOSAT 2 4.3 05:59:49 10° S 06:04:36 65° W 06:09:26 10° NNW
Cosmos 1758 Rocket 3.5 06:00:30 10° S 06:04:47 88° E 06:09:09 10° N
Cosmos 44 3.8 06:00:17 10° NW 06:05:20 46° WSW 06:10:27 10° S
Cosmos 2322 4.2 06:13:04 10° NNW 06:18:48 69° ENE 06:24:28 10° SSE
Meteor 1-28 Rocket 3.4 06:15:13 10° S 06:18:49 48° W 06:22:28 10° NNW
CZ-4B DEB 4.5 06:14:27 10° N 06:19:49 52° WNW 06:25:09 10° SSW
Meteor 2-5 Rocket 3.7 06:15:26 10° SSW 06:20:55 68° W 06:26:28 10° N
